Regional Weather Roundup
Issued by NWS

Home | Current Version | Previous Version | Graphics & Text | Print | Product List | Glossary On
Versions: 1 2 3 4 5 6 7 8 9 10 11 12 13 14 15 16 17 18 19 20 21 22 23 24 25 26 27 28 29 30 31 32 33 34 35 36 37 38 39 40 41 42 43 44 45 46 47 48 49 50
000
ASUS43 KLSX 081657
RWRMO

WEATHER SUMMARY FOR MISSOURI
NATIONAL WEATHER SERVICE SPRINGFIELD MO
1100 AM CST MON FEB 08 2016

NOTE: "FAIR" INDICATES FEW OR NO CLOUDS BELOW 12,000 FEET WITH NO
       SIGNIFICANT WEATHER AND/OR OBSTRUCTIONS TO VISIBILITY.
       CURRENT SKY AND/OR WEATHER CONDITIONS ARE NOT AVAILABLE FOR
       CHILLICOTHE AND FARMINGTON.

MOZ001>031-035>038-043-044-053-054-081800-
...NORTHERN AND WESTERN MISSOURI...

CITY           SKY/WX    TMP DP  RH WIND       PRES   REMARKS
KANSAS CTY INT LGT SNOW  29  22  75 NW23G31   30.06R WCI  15
LEE`S SUMMIT   FLURRIES  30  18  60 NW22G28   30.06R WCI  17
ST JOSEPH      CLOUDY    30  18  60 N26G32    30.09R WCI  16
CHILLICOTHE      N/A     27  14  58 NW20G32   30.02R WCI  13

$$
MOZ066>068-077>081-088>096-101>105-081800-
...SOUTHWEST MISSOURI...

CITY           SKY/WX    TMP DP  RH WIND       PRES   REMARKS
SPRINGFIELD    CLOUDY    35  14  42 NW29G41   30.00R WCI  22
JOPLIN         MOSUNNY   38  24  57 NW18G29   30.11R WCI  28

$$
MOZ032>034-039>042-045>050-055>058-069>072-081800-
...CENTRAL MISSOURI...

CITY           SKY/WX    TMP DP  RH WIND       PRES   REMARKS
COLUMBIA       NOT AVBL
JEFFERSON CITY CLOUDY    29  15  56 NW22G38   29.96R WCI  15
ROLLA          CLOUDY    27  17  66 NW17G30   29.91R WCI  14
SEDALIA        PTSUNNY   29  17  61 NW25G38   30.01R WCI  14

$$
MOZ051-052-059>065-081800-
...EAST CENTRAL MISSOURI...

CITY           SKY/WX    TMP DP  RH WIND       PRES   REMARKS
ST LOUIS INTL  FLURRIES  32  16  51 W22G31    29.88R WCI  19

$$
MOZ072>076-082>087-097>100-106>115-081800-
...SOUTH CENTRAL AND SOUTHEAST MISSOURI...

CITY           SKY/WX    TMP DP  RH WIND       PRES   REMARKS
CAPE GIRARDEAU NOT AVBL
POPLAR BLUFF   CLOUDY    38  20  48 NW23G31   29.90S WCI  27
WEST PLAINS    CLOUDY    37  16  42 NW18G39   29.92S WCI  27

$$


USA.gov is the U.S. government's official web portal to all federal, state and local government web resources and services.